Weather History for Monticello, NY

Change the Weather History Date:

Tuesday, June 3, 2014

  Actual Average Record
Temperature  
Mean Temperature 68 °F -  
Max Temperature 82 °F 66 °F 82 °F (2014)
Min Temperature 55 °F 47 °F 39 °F (2002)
Cooling Degree Days 4    
Growing Degree Days 18 (Base 50)    
Moisture  
Dew Point 63 °F    
Average Humidity 87    
Maximum Humidity 100    
Minimum Humidity 54    
Precipitation  
Precipitation 0.00 in - - ()
Sea Level Pressure  
Sea Level Pressure 29.97 in    
Wind  
Wind Speed 1 mph (South)    
Max Wind Speed 10 mph    
Max Gust Speed -    
Visibility 9 miles    
Events Thunderstorm    
Averages and records for this station are not official NWS values.
T = Trace of Precipitation, MM = Missing Value Source: NWS Daily Summary

Daily Weather History Graph

Daily Weather History Graph

Search for Another Location

Airport:

Trip Planner

Search our weather history database for the weather conditions in past years. The results will help you decide how hot, cold, wet, or windy it might be!

Date:

Astronomy

Jun. 03, 2014 Rise Set
Actual Time 5:26 AM EDT 8:28 PM EDT
Civil Twilight 4:52 AM EDT 9:02 PM EDT
Nautical Twilight 4:10 AM EDT 9:45 PM EDT
Astronomical Twilight 3:19 AM EDT 10:35 PM EDT
Moon 10:50 AM EDT (6/3) No Moon Set
Length of Visible Light 16h 09m
Length of Day
15h 02m
Waxing Crescent, 30% of the Moon is Illuminated
Jun 3
Waxing Crescent
Jun 5
First Quarter
Jun 13
Full
Jun 19
Last Quarter
Jun 27
New

Hourly Weather History & Observations

Time (EDT) Temp. Heat Index Dew Point Humidity Pressure Visibility Wind Dir Wind Speed Gust Speed Precip Events Conditions
12:15 AM 60.8 °F - 57.2 °F 88% 30.08 in 10.0 mi Calm Calm - N/A   Clear
12:35 AM 60.8 °F - 57.2 °F 88% 30.07 in 10.0 mi Calm Calm - N/A   Clear
12:55 AM 60.8 °F - 57.2 °F 88% 30.07 in 10.0 mi Calm Calm - N/A   Clear
1:15 AM 60.8 °F - 57.2 °F 88% 30.06 in 10.0 mi Calm Calm - N/A   Clear
1:35 AM 60.8 °F - 57.2 °F 88% 30.06 in 10.0 mi Calm Calm - N/A   Clear
1:55 AM 57.2 °F - 57.2 °F 100% 30.06 in 10.0 mi Calm Calm - N/A   Clear
2:15 AM 59.0 °F - 57.2 °F 94% 30.05 in 10.0 mi Calm Calm - N/A   Clear
2:35 AM 57.2 °F - 57.2 °F 100% 30.04 in 10.0 mi Calm Calm - N/A   Clear
2:55 AM 57.2 °F - 57.2 °F 100% 30.04 in 10.0 mi Calm Calm - N/A   Clear
3:15 AM 57.2 °F - 57.2 °F 100% 30.04 in 10.0 mi Calm Calm - N/A   Clear
3:35 AM 57.2 °F - 55.4 °F 94% 30.04 in 8.0 mi Calm Calm - N/A   Clear
3:55 AM 57.2 °F - 55.4 °F 94% 30.03 in 10.0 mi Calm Calm - N/A   Clear
4:15 AM 57.2 °F - 55.4 °F 94% 30.03 in 8.0 mi Calm Calm - N/A   Clear
4:35 AM 57.2 °F - 55.4 °F 94% 30.03 in 8.0 mi Calm Calm - N/A   Clear
4:55 AM 55.4 °F - 53.6 °F 94% 30.03 in 9.0 mi Calm Calm - N/A   Clear
5:15 AM 57.2 °F - 55.4 °F 94% 30.03 in 9.0 mi Calm Calm - N/A   Clear
5:35 AM 57.2 °F - 55.4 °F 94% 30.03 in 7.0 mi Calm Calm - N/A   Clear
5:55 AM 57.2 °F - 55.4 °F 94% 30.03 in 5.0 mi Calm Calm - N/A   Clear
6:15 AM 57.2 °F - 55.4 °F 94% 30.03 in 7.0 mi Calm Calm - N/A   Clear
6:35 AM 57.2 °F - 57.2 °F 100% 30.03 in 9.0 mi Calm Calm - N/A   Partly Cloudy
6:55 AM 59.0 °F - 59.0 °F 100% 30.03 in 10.0 mi Calm Calm - N/A   Partly Cloudy
7:15 AM 60.8 °F - 59.0 °F 94% 30.03 in 10.0 mi Calm Calm - N/A   Partly Cloudy
7:35 AM 62.6 °F - 60.8 °F 94% 30.02 in 10.0 mi Calm Calm - N/A   Partly Cloudy
7:55 AM 64.4 °F - 60.8 °F 88% 30.02 in 10.0 mi Calm Calm - N/A   Partly Cloudy
8:15 AM 66.2 °F - 60.8 °F 83% 30.02 in 10.0 mi Calm Calm - N/A   Clear
8:35 AM 69.8 °F - 62.6 °F 78% 30.02 in 10.0 mi Calm Calm - N/A   Clear
8:55 AM 69.8 °F - 62.6 °F 78% 30.02 in 10.0 mi Calm Calm - N/A   Clear
9:15 AM 71.6 °F - 64.4 °F 78% 30.01 in 10.0 mi Calm Calm - N/A   Clear
9:35 AM 73.4 °F - 64.4 °F 73% 30.01 in 10.0 mi Calm Calm - N/A   Clear
9:55 AM 75.2 °F - 64.4 °F 69% 30.00 in 10.0 mi West 3.5 mph - N/A   Clear
10:15 AM 75.2 °F - 66.2 °F 73% 30.00 in 10.0 mi SW 4.6 mph - N/A   Clear
10:35 AM 77.0 °F - 66.2 °F 69% 29.99 in 10.0 mi WSW 3.5 mph - N/A   Clear
10:55 AM 78.8 °F - 64.4 °F 61% 29.99 in 10.0 mi WSW 6.9 mph - N/A   Clear
11:15 AM 78.8 °F - 64.4 °F 61% 29.98 in 10.0 mi SW 3.5 mph - N/A   Partly Cloudy
11:35 AM 80.6 °F 82.3 °F 64.4 °F 58% 29.98 in 10.0 mi WSW 6.9 mph - N/A   Partly Cloudy
11:55 AM 78.8 °F - 64.4 °F 61% 29.97 in 10.0 mi WSW 6.9 mph - N/A   Clear
12:15 PM 82.4 °F 83.9 °F 64.4 °F 54% 29.96 in 10.0 mi SW 4.6 mph - N/A   Partly Cloudy
12:35 PM 80.6 °F 82.3 °F 64.4 °F 58% 29.96 in 10.0 mi Calm Calm - N/A   Mostly Cloudy
12:55 PM 80.6 °F 82.3 °F 64.4 °F 58% 29.95 in 10.0 mi SSW 5.8 mph - N/A   Mostly Cloudy
1:15 PM 75.2 °F - 64.4 °F 69% 29.95 in 10.0 mi SSE 9.2 mph - N/A   Scattered Clouds
1:35 PM 73.4 °F - 66.2 °F 78% 29.94 in 10.0 mi SE 8.1 mph - N/A Thunderstorm Thunderstorm
1:55 PM 78.8 °F - 66.2 °F 65% 29.93 in 10.0 mi SSE 9.2 mph - N/A   Clear
2:15 PM 78.8 °F - 66.2 °F 65% 29.91 in 10.0 mi South 10.4 mph - N/A Thunderstorm Partly Cloudy
2:35 PM - - - N/A% - - North - - N/A Thunderstorm Thunderstorm
2:55 PM 68.0 °F - 64.4 °F 88% 29.90 in 7.0 mi South 10.4 mph - N/A Thunderstorm Thunderstorm
3:15 PM 68.0 °F - 66.2 °F 94% 29.91 in 8.0 mi South 9.2 mph - N/A Thunderstorm Thunderstorm
3:55 PM 69.8 °F - 69.8 °F 100% 29.91 in 7.0 mi Calm Calm - N/A Thunderstorm Thunderstorm
4:15 PM 69.8 °F - 68.0 °F 94% 29.90 in 10.0 mi South 6.9 mph - N/A   Partly Cloudy
4:35 PM 71.6 °F - 69.8 °F 94% 29.89 in 10.0 mi South 6.9 mph - N/A   Clear
4:55 PM 71.6 °F - 68.0 °F 88% 29.88 in 10.0 mi SSW 4.6 mph - N/A   Clear
5:15 PM 71.6 °F - 69.8 °F 94% 29.88 in 10.0 mi Calm Calm - N/A   Clear
5:35 PM 71.6 °F - 69.8 °F 94% 29.88 in 10.0 mi Calm Calm - N/A   Clear
5:55 PM 71.6 °F - 69.8 °F 94% 29.88 in 10.0 mi ESE 3.5 mph - N/A   Partly Cloudy
6:15 PM 71.6 °F - 69.8 °F 94% 29.88 in 10.0 mi Calm Calm - N/A   Partly Cloudy
6:35 PM 71.6 °F - 69.8 °F 94% 29.88 in 10.0 mi Calm Calm - N/A   Partly Cloudy
6:55 PM 71.6 °F - 69.8 °F 94% 29.88 in 10.0 mi SE 4.6 mph - N/A   Partly Cloudy
7:15 PM 73.4 °F - 69.8 °F 88% 29.88 in 10.0 mi Calm Calm - N/A   Clear
7:35 PM 71.6 °F - 69.8 °F 94% 29.88 in 10.0 mi Calm Calm - N/A   Clear
7:55 PM 71.6 °F - 69.8 °F 94% 29.87 in 10.0 mi Calm Calm - N/A   Clear
8:15 PM 71.6 °F - 69.8 °F 94% 29.88 in 10.0 mi Calm Calm - N/A   Clear
8:35 PM 69.8 °F - 68.0 °F 94% 29.88 in 10.0 mi SSE 4.6 mph - N/A   Clear
8:55 PM 69.8 °F - 68.0 °F 94% 29.87 in 10.0 mi SSE 4.6 mph - N/A   Clear
9:15 PM 68.0 °F - 68.0 °F 100% 29.88 in 4.0 mi Calm Calm - N/A   Clear
9:35 PM 66.2 °F - 64.4 °F 94% 29.89 in 0.2 mi Calm Calm - N/A   Unknown
9:55 PM 68.0 °F - 66.2 °F 94% 29.90 in 3.0 mi Calm Calm - N/A   Scattered Clouds
10:15 PM 66.2 °F - 66.2 °F 100% 29.89 in 3.0 mi Calm Calm - N/A   Mostly Cloudy
10:35 PM 66.2 °F - 66.2 °F 100% 29.90 in 3.0 mi NNE 8.1 mph - N/A Thunderstorm Scattered Clouds
11:15 PM 62.6 °F - 57.2 °F 82% 29.89 in 9.0 mi East 8.1 mph - N/A Thunderstorm Thunderstorm
11:55 PM 60.8 °F - 59.0 °F 94% 29.89 in 10.0 mi Calm Calm - N/A   Clear